Regional Weather Roundup
Issued by NWS

Home | Current Version | Previous Version | Graphics & Text | Print | Product List | Glossary On
Versions: 1 2 3 4 5 6 7 8 9 10 11 12 13 14 15 16 17 18 19 20 21 22 23 24 25 26 27 28 29 30 31 32 33 34 35 36 37 38 39 40 41 42 43 44 45 46 47 48 49 50
000
ASUS43 KBIS 312210
RWRND

NORTH DAKOTA REGIONAL WEATHER ROUNDUP
NATIONAL WEATHER SERVICE BISMARCK ND
500 PM CDT TUE MAY 31 2016

NOTE: "FAIR" INDICATES FEW OR NO CLOUDS BELOW 12,000 FEET WITH NO
SIGNIFICANT WEATHER AND/OR OBSTRUCTIONS TO VISIBILITY.


NDZ001>003-009>011-017-312300-
NORTHWEST NORTH DAKOTA

CITY           SKY/WX    TMP DP  RH WIND       PRES   REMARKS
WILLISTON      LGT RAIN  54  49  83 N20G32    29.87R
MINOT          CLOUDY    67  55  65 NW22G29   29.64R
MINOT AFB      CLOUDY    58  53  84 NW21G29   29.64R
$$

NDZ018>021-031>035-040>046-312300-
SOUTHWEST NORTH DAKOTA

CITY           SKY/WX    TMP DP  RH WIND       PRES   REMARKS
BISMARCK       CLOUDY    58  52  80 NW6       29.64S
DICKINSON      LGT RAIN  49  45  86 NW31G40   29.82R
GARRISON         N/A     62  52  69 W10       29.64S
HETTINGER ARPT PTSUNNY   54  46  74 NW30G44   29.87R
$$

NDZ004>008-012>016-024-026-027-054-312300-
NORTHEAST NORTH DAKOTA

CITY           SKY/WX    TMP DP  RH WIND       PRES   REMARKS
GRAND FORKS    PTSUNNY   67  49  52 S14       29.67F
GRND FRKS AFB  MOSUNNY   67  47  48 S10       29.67F
DEVILS LAKE    MOSUNNY   63  48  58 S6        29.64F
$$

NDZ022-023-025-028>030-036>039-047>053-312300-
SOUTHEAST NORTH DAKOTA

CITY           SKY/WX    TMP DP  RH WIND       PRES   REMARKS
FARGO          PTSUNNY   70  44  39 S21G30    29.70F
JAMESTOWN      PTSUNNY   60  49  66 SW15      29.65F
$$





USA.gov is the U.S. government's official web portal to all federal, state and local government web resources and services.